[[{"header":{"parameterUnit":"m.s-1","parameterCategory":1,"la1":30.2991,"la2":30.254,"lo1":-89.0895,"lo2":-89.0444,"dy":0.0017,"dx":0.0017,"nx":28,"ny":28,"refTime":"2025-06-19T03:00:00:Z","depth":0,"parameterNumber":2,"parameterNumberName":"U-component_of_WINDS"},"data":[0,0,0,0,0,0,0,0,0,0,0,0,0,0,0,0,0,0,0,0,0,0,0,0,0,0,0,0,0,0,0,0,0,0,0,0,0,0,0,0,0,0,0,0,0,0,0,0,0,0,0,0,0,0,0,0,0,0,4.9053,4.9054,0,4.9151,4.9152,4.9153,4.9076,4.9073,4.9069,4.9066,4.9164,4.9169,4.9175,0,0,0,0,0,0,0,0,0,0,0,0,0,4.8795,4.88,4.9053,4.9054,4.9055,4.9151,4.9152,4.9153,4.9077,4.9072,4.9068,4.9065,4.9162,4.9169,4.9175,0,0,0,0,0,0,0,0,0,0,0,0,0,4.8901,4.8802,4.9053,4.9029,4.9027,4.9151,4.9152,4.9154,4.9077,4.9072,4.9067,4.9063,4.916,4.9168,4.9176,4.9328,0,0,4.9202,4.9206,0,0,0,0,0,0,0,0,4.8895,4.8911,4.9031,4.903,4.9029,4.9096,4.9097,4.9212,4.9079,4.9058,4.9066,4.906,4.9145,4.9154,4.9184,4.9332,4.9336,4.9203,4.9208,4.9212,4.9214,0,0,0,0,0,0,0,4.8888,4.8906,4.9092,4.9033,4.9032,4.9011,4.9021,4.9118,4.9128,4.906,4.9054,4.9067,4.9144,4.9176,4.9185,4.9338,4.9203,4.921,4.9216,4.9219,4.9611,4.9616,0,0,0,0,0,0,4.8884,4.8901,4.9088,4.9094,4.8949,4.902,4.9031,4.908,4.9127,4.9129,4.9071,4.9063,4.9163,4.9175,4.9188,4.9365,4.9212,4.922,4.9225,4.9606,4.9612,4.9618,0,0,0,0,0,0,4.8878,4.8901,4.9084,4.8996,4.9018,4.903,4.9085,4.9084,4.9116,4.9136,4.9137,4.9102,4.916,4.9176,4.9293,4.9367,4.9224,4.9231,4.9599,4.9607,4.9615,4.9721,0,0,0,0,0,0,4.8871,4.89,4.8958,4.8998,4.9023,4.9189,4.909,4.909,4.9131,4.9122,4.9165,4.9167,4.9157,4.928,4.9301,4.9376,4.9238,4.9592,4.9603,4.9612,4.9711,4.9732,4.975,0,0,0,0,0,4.8862,4.8985,4.8962,4.8985,4.9097,4.9193,4.9207,4.9194,4.9138,4.9195,4.9208,4.9166,4.9357,4.9293,4.9316,4.9395,4.9588,4.96,4.9612,4.9702,4.9728,4.9749,0,0,0,0,0,0,4.8953,4.8989,4.8964,4.9104,4.9146,4.918,4.9253,4.9222,4.9281,4.9269,4.925,4.926,4.9381,4.94,4.9329,4.9541,4.9463,4.948,4.9524,4.9548,4.9567,4.9558,4.9245,0,0,0,0,0,4.8989,4.9066,4.9093,4.9213,4.9236,4.9241,4.9283,4.9269,4.9311,4.9329,4.935,4.9392,4.946,4.9506,4.9571,4.9715,4.9721,4.978,4.9799,4.9815,4.9829,4.9902,4.9927,4.9657,4.9657,4.9657,0,0,4.9064,4.9094,4.9143,4.9232,4.9263,4.9341,4.9257,4.9343,4.9399,4.9342,4.9451,4.9469,4.9514,4.9644,4.9702,4.9663,4.9905,4.983,4.9843,4.9848,4.9917,4.9942,4.9965,4.9665,4.9664,4.9662,0,0,4.924,4.9272,4.9374,4.9407,4.9455,4.9457,4.9482,4.9521,4.953,4.964,4.9597,4.9664,4.9785,4.9817,4.985,5.0037,4.9999,5.0059,5.0158,5.023,5.0251,5.027,5.0332,5.0356,5.0074,5.0074,5.0074,0,4.9327,4.9443,4.9429,4.9518,4.9557,4.9509,4.961,4.9643,4.971,4.9737,4.9693,4.9841,4.9868,5.0003,5.0048,5.0078,5.0102,5.0052,5.025,5.0268,5.0285,5.0345,5.0369,5.0081,5.008,5.0079,5.0078,0,4.9545,4.9627,4.9703,4.9768,4.9816,4.9911,4.9909,4.9959,4.9942,4.9948,5.006,5.0091,5.016,5.0192,5.0176,5.0324,5.0297,5.0253,5.0172,5.0318,5.0373,5.0396,5.009,5.0088,5.0086,5.0084,0,0,4.9778,4.9835,4.9863,4.989,4.994,5.0002,5.0094,5.0161,5.0202,5.0251,5.0324,5.0427,5.0385,5.0422,5.0409,5.0473,5.0614,5.0419,5.042,5.045,5.0774,5.0804,5.0831,5.0591,5.0595,5.0599,5.0768,0,4.9953,5.0113,5.0102,5.0252,5.0324,5.028,5.036,5.0398,5.0406,5.0468,5.0477,5.0548,5.049,5.0511,5.0573,5.0584,5.0678,5.0572,5.0656,5.0659,5.0641,5.086,5.0893,5.1051,5.079,5.0794,5.0797,0,5.0177,5.0232,5.0389,5.0425,5.0455,5.0527,5.0586,5.0648,5.0689,5.069,5.0732,5.0708,5.0798,5.0719,5.084,5.0769,5.0803,5.0814,5.0819,5.0823,5.0733,5.0865,5.1102,5.1124,5.0831,5.0829,5.0826,0,5.0325,5.044,5.0547,5.0573,5.0619,5.067,5.0691,5.0728,5.0768,5.0821,5.0846,5.0909,5.0942,5.099,5.0982,5.0926,5.1105,5.1026,5.1105,5.1105,5.1141,5.1138,5.1382,5.1172,5.1171,5.1171,5.117,0,5.0518,5.0615,5.0614,5.0679,5.0785,5.0773,5.0877,5.0893,5.0926,5.0992,5.0959,5.1021,5.101,5.1072,5.1068,5.1166,5.1183,5.1184,5.1181,5.1185,5.1184,5.1203,5.119,5.1177,5.1176,5.1175,5.1173,0,5.07,5.0704,5.0817,5.0852,5.0863,5.0939,5.0967,5.1028,5.1035,5.1119,5.1138,5.1147,5.1218,5.1217,5.1298,5.1295,5.1415,5.1401,5.1401,5.1396,5.1474,5.1464,5.1735,5.1767,5.154,5.1542,5.1544,0,5.082,5.0893,5.0936,5.0978,5.1003,5.1072,5.1113,5.1103,5.1147,5.1199,5.1253,5.1321,5.1374,5.149,5.1503,5.1564,5.1548,5.1639,5.1557,5.1557,5.1544,5.1538,5.1543,5.1653,5.1656,5.1658,5.166,0,5.1032,5.103,5.1091,5.1153,5.1203,5.125,5.1294,5.1331,5.1326,5.1376,5.1448,5.149,5.1573,5.1639,5.1698,5.1718,5.1687,5.1686,5.1707,5.1709,5.1703,5.1702,5.1439,5.1679,5.1677,5.1676,5.1675,5.1674,5.1183,5.1245,5.1284,5.1352,5.1384,5.1426,5.1484,5.1497,5.1558,5.1624,5.1615,5.1695,5.1733,5.1808,5.1834,5.1895,5.1862,5.1894,5.19,5.1907,5.1913,5.1698,5.1906,5.1905,5.1905,5.1904,5.1904,0,5.1389,5.1412,5.1475,5.1537,5.1591,5.156,5.1606,5.1652,5.1723,5.1761,5.1815,5.1896,5.1961,5.1979,5.2041,5.2086,5.2073,5.2102,5.2095,5.21,5.1941,5.1915,5.2111,5.2111,5.2111,5.2111,5.211,5.211,5.1502,5.1603,5.1606,5.1721,5.1743,5.1822,5.185,5.1887,5.1917,5.201,5.2064,5.2076,5.2105,5.2169,5.2225,5.2229,5.2251,5.2285,5.2282,5.2132,5.2112,5.2092,5.2066,5.2291,5.2291,5.2435,5.2436,5.2437]},{"header":{"parameterUnit":"m.s-1","parameterCategory":1,"la1":30.2991,"la2":30.254,"lo1":-89.0895,"lo2":-89.0444,"dy":0.0017,"dx":0.0017,"nx":28,"ny":28,"refTime":"2025-06-19T03:00:00:Z","depth":0,"parameterNumber":3,"parameterNumberName":"V-component_of_WINDS"},"data":[0,0,0,0,0,0,0,0,0,0,0,0,0,0,0,0,0,0,0,0,0,0,0,0,0,0,0,0,0,0,0,0,0,0,0,0,0,0,0,0,0,0,0,0,0,0,0,0,0,0,0,0,0,0,0,0,0,0,3.9784,3.9785,0,3.9855,3.9856,3.9856,3.9814,3.9812,3.981,3.9808,3.9879,3.9882,3.9886,0,0,0,0,0,0,0,0,0,0,0,0,0,3.9608,3.9612,3.9784,3.9785,3.9786,3.9855,3.9856,3.9857,3.9814,3.9812,3.981,3.9807,3.9877,3.9882,3.9886,0,0,0,0,0,0,0,0,0,0,0,0,0,3.9682,3.9613,3.9784,3.9773,3.9773,3.9854,3.9856,3.9857,3.9815,3.9812,3.9809,3.9806,3.9876,3.9881,3.9887,3.9983,0,0,3.9904,3.9907,0,0,0,0,0,0,0,0,3.9678,3.9689,3.9774,3.9774,3.9774,3.9823,3.9819,3.9899,3.9816,3.9799,3.9808,3.9805,3.9862,3.9869,3.9889,3.9986,3.9989,3.9905,3.9908,3.9911,3.9912,0,0,0,0,0,0,0,3.9673,3.9685,3.9812,3.9775,3.9775,3.9763,3.9771,3.9834,3.9847,3.98,3.9797,3.9806,3.9862,3.9883,3.989,3.999,3.9905,3.991,3.9913,3.9915,4.0166,4.0169,0,0,0,0,0,0,3.9669,3.9682,3.981,3.9814,3.9718,3.9769,3.9777,3.981,3.9846,3.9848,3.9809,3.9804,3.9875,3.9884,3.9892,4.0005,3.9911,3.9916,3.9919,4.0163,4.0167,4.0171,0,0,0,0,0,0,3.9666,3.9681,3.9807,3.9747,3.9762,3.9775,3.9812,3.9813,3.9835,3.9853,3.9854,3.9829,3.9873,3.9884,3.996,4.0007,3.9918,3.9924,4.0159,4.0164,4.0169,4.0232,0,0,0,0,0,0,3.9661,3.968,3.9718,3.9748,3.9765,3.9875,3.9815,3.9816,3.9845,3.9839,3.9872,3.9874,3.9872,3.9952,3.9966,4.0013,3.9928,4.0155,4.0161,4.0167,4.0226,4.0239,4.025,0,0,0,0,0,3.9655,3.9733,3.972,3.9735,3.9813,3.9877,3.9887,3.9883,3.9849,3.9886,3.9897,3.9873,4.0,3.996,3.9975,4.0025,4.0152,4.016,4.0167,4.0221,4.0236,4.025,0,0,0,0,0,0,3.9707,3.9737,3.9722,3.9813,3.9843,3.987,3.9917,3.99,3.994,3.9933,3.9925,3.9933,4.0012,4.0026,3.9981,4.0118,4.007,4.0081,4.0106,4.0121,4.0133,4.0127,3.9933,0,0,0,0,0,3.9729,3.978,3.9803,3.988,3.9896,3.9904,3.9932,3.9926,3.9957,3.9969,3.9986,4.0015,4.0061,4.0092,4.0136,4.0228,4.0233,4.0269,4.0281,4.0291,4.03,4.0348,4.0364,4.0195,4.0195,4.0195,0,0,3.9776,3.9798,3.9831,3.9892,3.9914,3.9966,3.9915,3.9972,4.001,3.9977,4.005,4.0063,4.0095,4.0179,4.0217,4.0193,4.0348,4.03,4.0308,4.0312,4.0357,4.0373,4.0387,4.02,4.0199,4.0198,0,0,3.9886,3.9909,3.9975,3.9998,4.0033,4.0037,4.0053,4.0083,4.009,4.0163,4.0139,4.0183,4.0263,4.0286,4.0309,4.0426,4.0405,4.044,4.0502,4.0548,4.0561,4.0573,4.0613,4.0628,4.0449,4.0449,4.0449,0,3.9939,4.0017,4.0011,4.007,4.0096,4.0069,4.0135,4.0158,4.0205,4.0223,4.0196,4.0295,4.0315,4.0403,4.0431,4.0451,4.0467,4.0436,4.056,4.0572,4.0583,4.0621,4.0636,4.0453,4.0453,4.0452,4.0452,0,4.0079,4.0133,4.0182,4.0228,4.0261,4.0323,4.0325,4.0358,4.0349,4.0355,4.0428,4.0451,4.0498,4.0518,4.051,4.0604,4.0588,4.0561,4.0513,4.0603,4.0638,4.0653,4.0459,4.0458,4.0456,4.0455,0,0,4.0226,4.0267,4.0285,4.0304,4.034,4.0381,4.044,4.0487,4.0514,4.0547,4.0596,4.0663,4.0637,4.0663,4.0657,4.0698,4.0786,4.0665,4.0665,4.0686,4.089,4.091,4.0927,4.0773,4.0776,4.0778,4.0887,0,4.0337,4.0443,4.0439,4.0536,4.0585,4.0559,4.061,4.0637,4.0644,4.0685,4.0693,4.074,4.0704,4.0719,4.0758,4.0767,4.0827,4.076,4.0817,4.0819,4.0809,4.0946,4.0967,4.1069,4.0901,4.0903,4.0905,0,4.0482,4.052,4.0623,4.0649,4.0669,4.0716,4.0756,4.0797,4.0825,4.0827,4.0855,4.0841,4.09,4.085,4.0929,4.0884,4.0906,4.0914,4.0918,4.0923,4.0867,4.0953,4.1102,4.1116,4.0927,4.0925,4.0924,0,4.0577,4.0653,4.0724,4.0742,4.0775,4.0808,4.0823,4.0848,4.0875,4.091,4.0927,4.0969,4.0991,4.1023,4.102,4.0985,4.11,4.1051,4.1103,4.1103,4.1128,4.1126,4.1281,4.1144,4.1144,4.1144,4.1143,0,4.0702,4.0766,4.0767,4.081,4.088,4.0873,4.0942,4.0953,4.0976,4.102,4.1,4.1041,4.1035,4.1076,4.1075,4.114,4.115,4.1152,4.1151,4.1154,4.1154,4.1169,4.1161,4.1148,4.1147,4.1146,4.1145,0,4.082,4.0824,4.0899,4.0923,4.0931,4.0981,4.1001,4.1041,4.1046,4.1102,4.1114,4.1122,4.1169,4.1169,4.1223,4.1222,4.1301,4.1292,4.1292,4.129,4.1341,4.1336,4.151,4.1532,4.1382,4.1383,4.1384,0,4.0899,4.0947,4.0976,4.1005,4.1022,4.1068,4.1095,4.109,4.1119,4.1154,4.1189,4.1234,4.127,4.1346,4.1356,4.1396,4.1388,4.1446,4.1394,4.1394,4.1387,4.1384,4.1388,4.1456,4.1458,4.1459,4.146,0,4.1039,4.1037,4.1078,4.112,4.1153,4.1185,4.1214,4.1238,4.1236,4.1269,4.1317,4.1345,4.14,4.1444,4.1483,4.1497,4.1478,4.1477,4.149,4.1494,4.1491,4.1492,4.1319,4.1473,4.1471,4.147,4.147,4.1469,4.1139,4.1179,4.1206,4.1251,4.1273,4.1301,4.1339,4.1348,4.1389,4.1433,4.1427,4.148,4.1505,4.1555,4.1572,4.1612,4.1592,4.1612,4.1617,4.1622,4.1627,4.1485,4.162,4.1619,4.1619,4.1619,4.1618,0,4.1276,4.1291,4.1333,4.1375,4.141,4.139,4.1421,4.1451,4.1498,4.1524,4.1559,4.1613,4.1656,4.1668,4.1709,4.1738,4.1731,4.1749,4.1747,4.175,4.1644,4.1628,4.1755,4.1755,4.1755,4.1755,4.1755,4.1755,4.1351,4.1419,4.1421,4.1498,4.1512,4.1565,4.1584,4.1608,4.1628,4.169,4.1725,4.1733,4.1752,4.1794,4.1831,4.1834,4.1849,4.1871,4.187,4.1771,4.1757,4.1744,4.1728,4.1875,4.1875,4.1972,4.1972,4.1973]}]]